When you browse on this site, cookies collect data to enhance your experience and personalize the content and advertising you see.
Visit our Privacy Policy to learn more. By continuing to use the site, you agree to this use of cookies and data.
  • In Portugal
  • List of Countries
  • For 7 days
  • Water Temperature
  • Weather Map
  • Weather Widgets
  • user-avatar
    Login

    Hourly Weather Mazatenango

    Today, 28 February, Friday

    Time Temperature Precipitation Wind Pressure Humidity
    00:00 +24°C° 0 mm 2 mps 730 mmHg 70%
    01:00 +23°C° 0 mm 2 mps 729 mmHg 67%
    02:00 +23°C° 0 mm 2 mps 729 mmHg 64%
    03:00 +23°C° 0 mm 2 mps 728 mmHg 61%
    04:00 +23°C° 0 mm 2 mps 729 mmHg 60%
    05:00 +23°C° 0 mm 2 mps 729 mmHg 59%
    06:00 +23°C° 0 mm 2 mps 729 mmHg 58%
    07:00 +26°C° 0 mm 1 mps 730 mmHg 53%
    08:00 +28°C° 0 mm 1 mps 730 mmHg 48%
    09:00 +31°C° 0 mm 1 mps 731 mmHg 43%
    10:00 +32°C° 0 mm 1 mps 731 mmHg 41%
    11:00 +35°C° 0 mm 2 mps 730 mmHg 39%
    12:00 +36°C° 0 mm 3 mps 730 mmHg 37%
    13:00 +35°C° 0.1 mm 3 mps 730 mmHg 42%
    14:00 +35°C° 0.1 mm 3 mps 729 mmHg 47%
    15:00 +34°C° 0.1 mm 3 mps 728 mmHg 51%
    16:00 +31°C° 0.3 mm 3 mps 728 mmHg 59%
    17:00 +30°C° 0.3 mm 2 mps 728 mmHg 66%
    18:00 +28°C° 0.3 mm 1 mps 729 mmHg 74%
    19:00 +27°C° 0 mm 2 mps 729 mmHg 74%
    20:00 +26°C° 0 mm 2 mps 730 mmHg 74%
    21:00 +24°C° 0 mm 2 mps 730 mmHg 74%
    22:00 +24°C° 0 mm 2 mps 730 mmHg 70%
    23:00 +24°C° 0 mm 2 mps 730 mmHg 65%

    Tomorrow, 29 February, Saturday

    Time Temperature Precipitation Wind Pressure Humidity
    00:00 +24°C° 0 mm 2 mps 730 mmHg 61%
    01:00 +23°C° 0 mm 2 mps 730 mmHg 59%
    02:00 +23°C° 0 mm 2 mps 729 mmHg 57%
    03:00 +23°C° 0 mm 2 mps 729 mmHg 54%
    04:00 +23°C° 0 mm 2 mps 729 mmHg 54%
    05:00 +23°C° 0 mm 2 mps 729 mmHg 54%
    06:00 +23°C° 0 mm 2 mps 729 mmHg 54%
    07:00 +25°C° 0 mm 2 mps 730 mmHg 48%
    08:00 +28°C° 0 mm 1 mps 731 mmHg 42%
    09:00 +31°C° 0 mm 1 mps 731 mmHg 36%
    10:00 +32°C° 0 mm 1 mps 731 mmHg 34%
    11:00 +35°C° 0 mm 2 mps 730 mmHg 31%
    12:00 +37°C° 0 mm 2 mps 730 mmHg 28%
    13:00 +36°C° 0 mm 3 mps 729 mmHg 33%
    14:00 +36°C° 0 mm 3 mps 729 mmHg 38%
    15:00 +35°C° 0 mm 4 mps 728 mmHg 43%
    16:00 +33°C° 0 mm 3 mps 728 mmHg 52%
    17:00 +30°C° 0 mm 3 mps 728 mmHg 61%
    18:00 +28°C° 0 mm 2 mps 728 mmHg 71%
    19:00 +27°C° 0 mm 2 mps 729 mmHg 72%
    20:00 +26°C° 0 mm 2 mps 729 mmHg 74%
    21:00 +25°C° 0 mm 2 mps 730 mmHg 76%
    22:00 +25°C° 0 mm 1 mps 730 mmHg 73%
    23:00 +24°C° 0 mm 1 mps 730 mmHg 70%

    Day after tomorrow, 1 March, Sunday

    Time Temperature Precipitation Wind Pressure Humidity
    00:00 +24°C° 0 mm 1 mps 729 mmHg 67%
    01:00 +24°C° 0 mm 1 mps 729 mmHg 65%
    02:00 +24°C° 0 mm 1 mps 729 mmHg 63%
    03:00 +24°C° 0 mm 1 mps 728 mmHg 61%
    04:00 +23°C° 0 mm 1 mps 728 mmHg 61%
    05:00 +23°C° 0 mm 1 mps 728 mmHg 61%
    06:00 +23°C° 0 mm 1 mps 728 mmHg 62%
    07:00 +26°C° 0 mm 1 mps 729 mmHg 56%
    08:00 +28°C° 0 mm 1 mps 730 mmHg 50%
    09:00 +31°C° 0 mm 1 mps 730 mmHg 44%
    10:00 +32°C° 0 mm 2 mps 730 mmHg 40%
    11:00 +35°C° 0 mm 2 mps 729 mmHg 37%
    12:00 +37°C° 0 mm 3 mps 729 mmHg 34%
    13:00 +36°C° 0 mm 3 mps 728 mmHg 37%
    14:00 +35°C° 0 mm 3 mps 727 mmHg 40%
    15:00 +35°C° 0 mm 4 mps 726 mmHg 43%
    16:00 +33°C° 0.1 mm 3 mps 726 mmHg 51%
    17:00 +30°C° 0.1 mm 3 mps 726 mmHg 58%
    18:00 +28°C° 0.1 mm 2 mps 727 mmHg 66%
    19:00 +27°C° 0 mm 2 mps 727 mmHg 69%
    20:00 +26°C° 0 mm 1 mps 728 mmHg 72%
    21:00 +25°C° 0 mm 1 mps 728 mmHg 75%
    22:00 +25°C° 0 mm 1 mps 728 mmHg 73%
    23:00 +25°C° 0 mm 1 mps 728 mmHg 70%

    2 March, Monday

    Time Temperature Precipitation Wind Pressure Humidity
    00:00 +25°C° 0 mm 1 mps 727 mmHg 68%
    01:00 +25°C° 0 mm 1 mps 727 mmHg 67%
    02:00 +25°C° 0 mm 1 mps 726 mmHg 66%
    03:00 +24°C° 0 mm 1 mps 726 mmHg 66%
    04:00 +24°C° 0 mm 1 mps 726 mmHg 66%
    05:00 +24°C° 0 mm 1 mps 726 mmHg 65%
    06:00 +24°C° 0 mm 1 mps 727 mmHg 65%
    07:00 +26°C° 0 mm 1 mps 727 mmHg 59%
    08:00 +28°C° 0 mm 2 mps 728 mmHg 52%
    09:00 +31°C° 0 mm 2 mps 728 mmHg 45%
    10:00 +32°C° 0 mm 2 mps 728 mmHg 42%
    11:00 +35°C° 0 mm 3 mps 728 mmHg 38%
    12:00 +36°C° 0 mm 3 mps 727 mmHg 35%
    13:00 +36°C° 0 mm 3 mps 726 mmHg 39%
    14:00 +35°C° 0 mm 3 mps 725 mmHg 43%
    15:00 +34°C° 0 mm 3 mps 725 mmHg 46%
    16:00 +33°C° 0.1 mm 3 mps 725 mmHg 54%
    17:00 +30°C° 0.1 mm 2 mps 725 mmHg 62%
    18:00 +28°C° 0.1 mm 1 mps 725 mmHg 69%
    19:00 +27°C° 0 mm 1 mps 725 mmHg 72%
    20:00 +26°C° 0 mm 1 mps 726 mmHg 75%
    21:00 +25°C° 0 mm 1 mps 726 mmHg 78%
    22:00 +25°C° 0 mm 1 mps 726 mmHg 77%
    23:00 +25°C° 0 mm 1 mps 726 mmHg 75%

    3 March, Tuesday

    Time Temperature Precipitation Wind Pressure Humidity
    00:00 +25°C° 0 mm 1 mps 726 mmHg 74%
    01:00 +25°C° 0 mm 1 mps 726 mmHg 74%
    02:00 +24°C° 0 mm 1 mps 725 mmHg 75%
    03:00 +24°C° 0 mm 1 mps 725 mmHg 75%
    04:00 +24°C° 0 mm 1 mps 725 mmHg 76%
    05:00 +24°C° 0 mm 1 mps 726 mmHg 77%
    06:00 +24°C° 0 mm 1 mps 726 mmHg 77%
    07:00 +26°C° 0 mm 1 mps 726 mmHg 68%
    08:00 +29°C° 0 mm 1 mps 727 mmHg 60%
    09:00 +31°C° 0 mm 1 mps 727 mmHg 51%
    10:00 +34°C° 0 mm 2 mps 727 mmHg 47%
    11:00 +35°C° 0 mm 2 mps 727 mmHg 43%
    12:00 +37°C° 0 mm 2 mps 727 mmHg 38%
    13:00 +36°C° 0 mm 3 mps 726 mmHg 42%
    14:00 +34°C° 0 mm 3 mps 725 mmHg 46%
    15:00 +33°C° 0 mm 3 mps 724 mmHg 50%
    16:00 +31°C° 0 mm 2 mps 724 mmHg 54%
    17:00 +30°C° 0 mm 2 mps 725 mmHg 58%
    18:00 +29°C° 0 mm 1 mps 725 mmHg 62%
    19:00 +28°C° 0 mm 1 mps 725 mmHg 66%
    20:00 +27°C° 0 mm 1 mps 726 mmHg 71%
    21:00 +25°C° 0 mm 1 mps 726 mmHg 75%
    22:00 +25°C° 0 mm 1 mps 726 mmHg 75%
    23:00 +25°C° 0 mm 1 mps 727 mmHg 75%

    4 March, Wednesday

    Time Temperature Precipitation Wind Pressure Humidity
    00:00 +25°C° 0 mm 1 mps 727 mmHg 75%
    01:00 +25°C° 0 mm 1 mps 726 mmHg 74%
    02:00 +25°C° 0 mm 1 mps 726 mmHg 74%
    03:00 +25°C° 0 mm 1 mps 726 mmHg 74%
    04:00 +24°C° 0 mm 1 mps 726 mmHg 73%
    05:00 +24°C° 0 mm 1 mps 726 mmHg 72%
    06:00 +24°C° 0 mm 1 mps 727 mmHg 71%
    07:00 +26°C° 0 mm 1 mps 727 mmHg 63%
    08:00 +29°C° 0 mm 1 mps 728 mmHg 54%
    09:00 +32°C° 0 mm 1 mps 728 mmHg 46%
    10:00 +34°C° 0 mm 2 mps 728 mmHg 41%
    11:00 +36°C° 0 mm 2 mps 728 mmHg 37%
    12:00 +37°C° 0 mm 3 mps 728 mmHg 33%
    13:00 +37°C° 0 mm 3 mps 727 mmHg 35%
    14:00 +37°C° 0 mm 4 mps 726 mmHg 36%
    15:00 +36°C° 0 mm 5 mps 726 mmHg 38%
    16:00 +34°C° 0 mm 4 mps 726 mmHg 44%
    17:00 +33°C° 0 mm 3 mps 726 mmHg 50%
    18:00 +30°C° 0 mm 2 mps 726 mmHg 57%
    19:00 +29°C° 0 mm 2 mps 727 mmHg 61%
    20:00 +27°C° 0 mm 2 mps 727 mmHg 65%
    21:00 +26°C° 0 mm 1 mps 728 mmHg 69%
    22:00 +26°C° 0 mm 1 mps 728 mmHg 69%
    23:00 +26°C° 0 mm 1 mps 728 mmHg 68%
    Show more